Voltar ao catálogo

STRV 1A

AtivoCiênciaHEO
NORAD 23125·PAYLOAD·🇬🇧 United Kingdom

Lançado Jun 17, 1994 de Guiana Space Centre

Loading…

Próximas Passagens (próximas 24 horas)

TLE

AtualizadoSource: Space-Track

Época: Sep 14, 2026, 12:06 UTC

1 23125U 94034B   26257.50484410  .00010509  00000-0  13183-2 0  9994
2 23125   7.3418 177.2537 6420363 356.9697   0.5054  3.45101623337270

Acompanhe STRV 1A em tempo real com AllMySat

Download on the App Store